www.pogodaiklimat.ru

Погода и климат >> Архив погоды >> Индонезия >> Роти


ПОГОДА на Роти

  • Прогноз погоды на Роти
  • Монитор погоды на Роти

АРХИВ ПОГОДЫ на Роти

Время (UTC), дата Ветер
(напр.,м/с)
 
Видим.   Явления Облачность Т
(С)
Тd
(С)
f
(%)
Тe
(С)
Тes
(С)
Комфортность P
(гПа)
Po
(гПа)
Тmin
(С)
Tmax
(С)
R
(мм)
R24
(мм)
S
(см)
00 18.06 В 2 10 км 4/4 600 м
[Cu hum Ci fib]
+24.2 +21.4 84 +31 +33 очень
душно
1019.5 998.4 +19.4
03 18.06 В 7 10 км 4/4 600 м
[Cu hum Ci fib]
+29.0 +19.5 57 +35 +38 очень
душно
1018.8 997.7
06 18.06 В 8 10 км 1/1 600 м
[Cu hum Ci fib]
+29.2 +18.6 53 +34 +36 очень
душно
1016.2 995.2
09 18.06 В 6 10 км 1/1 600 м
[Cu hum Ci fib]
+26.4 +20.7 71 +33 +33 очень
душно
1016.3 995.3
12 18.06 Ю 4 10 км 1/1 600 м
[Cu hum Ci fib]
+24.2 +20.8 81 +30 +30 очень
душно
1017.9 996.9 +29.8
15 18.06 В 2 10 км 1/1 600 м
[Cu hum Ci fib]
+23.8 +21.3 86 +30 +30 очень
душно
1018.7 997.6
18 18.06 В 2 10 км 1/1 600 м
[Cu hum Ci fib]
+23.0 +21.2 90 +31 +31 очень
душно
1018.1 997.0
21 18.06 штиль 0 10 км 1/1 600 м
[Cu hum Ci fib]
+21.6 +19.7 89 +27 +27 душно 1017.5 996.5
00 19.06 В 5 10 км 4/3 600 м
[Cu hum Ci fib]
+25.8 +19.6 69 +31 +33 очень
душно
1018.9 997.8 +20.0
03 19.06 В 7 10 км 4/3 600 м
[Cu hum Ci fib]
+28.6 +19.4 58 +34 +38 очень
душно
1018.1 997.7
06 19.06 В 8 10 км 4/4 600 м
[Cu hum Ci fib]
+28.4 +19.1 57 +34 +35 очень
душно
1015.8 994.8
09 19.06 В 5 10 км 3/1 600 м
[Cu hum Ci fib]
+26.2 +19.0 65 +31 +32 очень
душно
1015.9 994.9
12 19.06 В 4 10 км 1/1 600 м
[Cu hum Ci fib]
+23.8 +19.7 78 +29 +29 душно 1017.2 996.2 +29.4
15 19.06 В 4 10 км 4/3 600 м
[Cu hum Ci fib]
+23.0 +20.2 84 +30 +30 очень
душно
1018.1 997.1
18 19.06 В 2 10 км 1/1 600 м
[Cu hum Ci fib]
+22.2 +19.3 84 +28 +28 душно 1018.3 997.2
21 19.06 ЮВ 3 10 км 1/1 600 м
[Cu hum Ci fib]
+22.4 +19.2 82 +28 +28 душно 1018.2 997.2
00 20.06 В 6 10 км 1/1 600 м
[Cu hum Ci fib]
+25.4 +15.9 56 +29 +30 душно 1019.6 998.6 +21.0
03 20.06 В 9 10 км 4/3 600 м
[Cu hum Ci fib]
+27.6 +17.0 52 +31 +33 душно 1018.6 997.7
06 20.06 ЮВ 3 10 км 1/1 600 м
[Cu hum Ci fib]
+28.4 +16.1 47 +32 +39 душно 1016.7 995.6
09 20.06 В 5 10 км 1/1 600 м
[Cu hum Ci fib]
+26.6 +15.7 51 +30 +30 душно 1017.3 996.3
12 20.06 В 3 10 км 1/1 600 м
[Cu hum Ci fib]
+23.4 +17.9 71 +29 +29 душно 1018.5 997.4 +30.0
15 20.06 В 2 10 км 1/1 600 м
[Cu hum Ci fib]
+22.6 +17.7 74 +28 +28 душно 1018.8 997.8
18 20.06 В 3 10 км 1/1 600 м
[Cu hum Ci fib]
+22.4 +18.5 79 +28 +28 душно 1017.7 996.7
21 20.06 В 4 10 км 3/3 600 м
[Cu hum Ci fib]
+23.0 +18.9 78 +29 +29 очень
душно
1017.7 996.7
00 21.06 В 7 10 км 4/3 600 м
[Cu hum Ci fib]
+26.0 +19.2 66 +31 +32 очень
душно
1018.7 997.6 +17.4
03 21.06 В 8 10 км 4/4 600 м
[Cu hum Ci fib]
+28.2 +19.9 61 +34 +36 очень
душно
1017.6 996.5
06 21.06 ЮВ 8 10 км 5/5 600 м
[Cu hum Ci fib]
+27.6 +19.2 60 +33 +34 очень
душно
1015.1 994.2
09 21.06 ЮВ 6 10 км 3/1 600 м
[Cu hum Ci fib]
+25.8 +19.3 67 +31 +31 очень
душно
1015.2 994.2
12 21.06 ЮВ 3 10 км 1/1 600 м
[Cu hum Ci fib]
+23.6 +18.8 74 +28 +28 душно 1016.8 995.8 +30.4
15 21.06 ЮВ 2 10 км 1/1 600 м
[Cu hum Ci fib]
+23.2 +19.1 78 +30 +30 очень
душно
1018.1 997.0
18 21.06 В 4 10 км 1/1 600 м
[Cu hum Ci fib]
+24.0 +19.9 78 +29 +29 душно 1017.3 996.2
21 21.06 В 3 10 км 4/3 600 м
[Cu hum Ci fib]
+23.4 +20.3 83 +31 +31 очень
душно
1017.3 996.3
00 22.06 ЮВ 4 10 км 9/4 600 м
[Cu hum Ac As Ci fib]
+24.4 +21.0 81 +31 +32 очень
душно
1018.5 997.4 +22.8 0.0
03 22.06 В 9 10 км 4/3 600 м
[Cu hum Ci fib]
+27.6 +18.1 56 +32 +33 очень
душно
1017.6 996.5
06 22.06 В 6 10 км 4/3 600 м
[Cu hum Ci fib]
+28.2 +18.1 54 +33 +35 очень
душно
1015.5 994.5
09 22.06 ЮВ 6 10 км 1/1 600 м
[Cu hum Ci fib]
+26.0 +18.0 61 +30 +30 душно 1015.4 994.4
12 22.06 ЮВ 2 10 км 1/1 600 м
[Cu hum Ci fib]
+23.6 +18.8 74 +28 +28 душно 1017.0 995.9 +28.8
15 22.06 В 4 10 км 1/1 600 м
[Cu hum Ci fib]
+23.6 +19.5 78 +29 +29 душно 1016.9 995.9
18 22.06 В 3 10 км 8/6 600 м
[Cu med, cong Ci fib]
+23.0 +19.9 83 +30 +30 очень
душно
1016.8 995.8
21 22.06 В 3 10 км 8/5 600 м
[Cu hum Ac trans Ci fib]
+22.4 +21.5 95 +30 +30 очень
душно
1017.4 996.4
00 23.06 В 7 10 км 4/4 600 м
[Cu hum Ci fib]
+25.6 +19.7 70 +31 +32 очень
душно
1019.0 997.9 +22.6
03 23.06 ЮВ 8 10 км 4/4 600 м
[Cu hum Ci fib]
+27.8 +20.5 65 +35 +36 очень
душно
1018.5 997.4
09 23.06 ЮВ 6 10 км 3/3 600 м
[Cu hum Ci fib]
+26.0 +18.4 63 +31 +31 очень
душно
1016.5 995.4
12 23.06 ЮВ 5 10 км 3/3 600 м
[Cu hum Ci fib]
+23.6 +18.1 71 +28 +28 душно 1018.1 997.1 +30.6
15 23.06 ЮВ 5 10 км 3/3 600 м
[Cu hum Ci fib]
+24.0 +19.3 75 +29 +29 душно 1018.5 997.5
18 23.06 ЮВ 6 10 км 3/3 600 м
[Cu hum Ci fib]
+24.0 +19.3 75 +29 +29 душно 1018.4 997.4
21 23.06 ЮВ 4 10 км 3/3 600 м
[Cu hum Ci fib]
+23.4 +19.0 76 +30 +30 очень
душно
1018.6 997.5
00 24.06 В 4 10 км 3/1 600 м
[Cu hum Ci fib]
+25.6 +20.0 71 +31 +34 очень
душно
1020.6 999.4 +22.6
03 24.06 В 6 10 км 4/1 600 м
[Cu hum Ci fib]
+27.4 +19.1 61 +33 +37 очень
душно
1020.4 999.3
06 24.06 В 6 10 км 4/3 600 м
[Cu hum Ci fib]
+28.2 +19.2 58 +34 +36 очень
душно
1018.2 997.2
09 24.06 В 6 10 км 3/1 600 м
[Cu hum Ci fib]
+25.8 +18.9 66 +31 +31 очень
душно
1018.6 997.5
12 24.06 ЮВ 5 10 км 1/1 30 м
[Cu hum Ci fib]
+23.0 +18.1 74 +29 +29 очень
душно
1020.1 999.0 +30.0
15 24.06 В 3 10 км 1/1 30 м
[Cu hum Ci fib]
+22.6 +18.0 75 +28 +28 душно 1020.5 999.4
18 24.06 В 3 10 км 1/1 600 м
[Cu hum Ci fib]
+22.2 +18.0 77 +27 +27 душно 1018.0 998.9
21 24.06 В 3 10 км 1/1 600 м
[Cu hum Ci fib]
+22.0 +18.5 81 +27 +27 душно 1020.1 999.0

 

Местоположение метеостанции Роти (Индонезия): широта -10.73 долгота 123.07 высота над уровнем моря 1 м.

В архиве по умолчанию представлена погода на Роти за последнюю неделю. Архивные данные за месяц целиком и за предыдущие месяцы, начиная с января 2011 года, Вы можете получить, выбрав интересующий диапазон дат из раскрывающегося списка и нажав кнопку "Ввод!".


*Определитесь, кто Вы:
робот инопланетянин человек

Внимание! Время в таблицах - всемирное. Для получения местного времени необходимо прибавить поправку, которая равна 8 ч.

Смотрите также архив погоды в соседних городах и на ближайших метеорологических станциях:

Погода в Купанге (Индонезия) (90 км)
Погода в Сабу (Индонезия) (138 км)
Погода в Маумере (Индонезия) (250 км)
Погода в Ларантуке (Индонезия) (274 км)
Погода в Аэропорту Умбу Механг Кунда (Индонезия) (322 км)
Погода на Алоре (Индонезия) (324 км)
Погода в Рутенге (Индонезия) (370 км)
Погода на Острове Брауз (Западная Австралия, Австралия) (380 км)
Погода на Острове Троутон (Западная Австралия, Австралия) (474 км)
Погода в Трускотте (Западная Австралия, Австралия) (518 км)

Пояснения к столбцам:

Ветер - указаны скорость ветра в м/с - средняя за 10 мин, порывы в срок и между сроками (в фигурных скобках) и направление, откуда дует ветер: С - северный, СВ - северо-восточный, В - восточный, ЮВ - юго-восточный, Ю - южный, ЮЗ - юго-западный, З - западный, СЗ - северо-западный.
Видимость - горизонтальная дальность видимости в метрах или километрах. При видимости от 1 до 10 км при отсутствии осадков обычно наблюдается дымка, при ухудшении видимости до 1 км и менее - туман. В сухую погоду видимость может ухудшаться дымом, пылью или мглою.
Явления - указаны атмосферные явления, наблюдавшиеся в срок или в последний час перед сроком; фигурными скобками обозначены явления, наблюдавшиеся между сроками (за 1-3 часа до срока); квадратными скобками обозначены град или гололедные отложения с указанием их диаметра в мм.
Облачность - указаны через наклонную черту общая и нижняя облачность в баллах и высота нижней границы облаков в метрах; квадратными скобками обозначены формы облаков: Ci - перистые, Cs - перисто-слоистые, Cc - перисто-кучевые, Ac - высококучевые, As - высокослоистые, Sc - слоисто-кучевые, Ns - слоисто-дождевые, Cu - кучевые, Cb - кучево-дождевые. Подробнее классификацию облаков см. в Атласе облаков (PDF).
T - Температура воздуха - температура, измеренная на высоте 2 м над землей.
Td - Температура точки росы - температура, при понижении до которой содержащийся в воздухе водяной пар достигнет насыщения.
f - Относительная влажность воздуха - влажноcть воздуха, измеренная на высоте 2 м над землей.
Te - Эффективная температура - температура, которую ощущает одетый по сезону человек в тени. Характеристика душности погоды. При расчете учитывается влияние влажности воздуха и скорости ветра на теплоощущения человека.
Tes - Эффективная температура на солнце - температура, которую ощущает человек, с поправкой на солнечный нагрев. Характеристика знойности погоды. Зависит от высоты солнца над горизонтом, облачности и скорости ветра. Ночью, в пасмурную погоду, а также при ветре 12 м/с и более поправка равна нулю.
P - Атмосферное давление - приведенное к уровню моря атмосферное давление.
Po - Атмосферное давление - измеренное на уровне метеостанции атмосферное давление.
Tmin - Минимальная температура - минимум температуры воздуха на высоте 2 м над землей.
Tmax - Максимальная температура - максимум температуры воздуха на высоте 2 м над землей.
R - Количество осадков - Количество выпавших осадков за период времени, мм. При наведении курсора мыши на число - период времени, за который выпало указанное количество осадков.
R24 - Количество осадков - Количество выпавших осадков за 24 часа, мм.
S - Снежный покров - Высота снежного покрова, см. При наведении курсора мыши на число - состояние снежного покрова и степень покрытия местности в баллах.